1486832400.95,29270,11.25,73760.5,-8.83,-20.93,-19.23,0,*5C
1486832402.23,29271,11.25,73760.8,-8.81,-21.03,-19.23,0,*57
1486832403.47,29272,11.31,73764.3,-8.81,-20.89,-19.17,0,*50
1486832404.7,29273,11.25,73762.0,-8.83,-20.83,-19.17,0,*59
1486832405.94,29274,11.25,73762.8,-8.83,-20.83,-19.17,0,*5E
1486832407.17,29275,11.31,73764.8,-8.83,-20.83,-19.07,0,*5E
1486832408.37,29276,11.31,73762.5,-8.83,-20.89,-19.07,0,*57
1486832409.61,29277,11.25,73762.5,-8.81,-20.89,-19.17,0,*55
1486832410.81,29278,11.25,73762.8,-8.83,-20.89,-19.07,0,*59
1486832412.04,29279,11.25,73762.3,-8.81,-20.89,-19.07,0,*5A
1486832413.26,29280,11.25,73760.3,-8.83,-20.89,-19.17,0,*5F
1486832414.49,29281,11.31,73762.0,-8.83,-20.83,-19.17,0,*54
1486832415.72,29282,11.25,73760.5,-8.81,-20.73,-19.07,0,*5B
1486832416.91,29283,11.25,73760.5,-8.83,-20.73,-19.07,0,*58
1486832418.14,29284,11.25,73760.5,-8.83,-20.83,-19.03,0,*54
1486832419.37,29285,11.25,73760.0,-8.81,-20.73,-19.07,0,*5C
1486832420.56,29286,11.25,73762.5,-8.83,-20.73,-19.07,0,*5D
1486832421.79,29287,11.25,73762.0,-8.81,-20.69,-19.03,0,*51
1486832423.02,29288,11.25,73760.3,-8.81,-20.69,-19.03,0,*5E
1486832424.28,29289,11.25,73762.0,-8.81,-20.69,-18.93,0,*57
1486832425.51,29290,11.25,73762.8,-8.83,-20.59,-18.93,0,*5E
1486832426.78,29291,11.25,73762.3,-8.83,-20.53,-18.93,0,*55
1486832428.01,29292,11.25,73762.8,-8.83,-20.59,-18.93,0,*5C
1486832429.28,29293,11.25,73760.3,-8.81,-20.59,-18.93,0,*5F
1486832430.53,29294,11.25,73762.5,-8.81,-20.69,-18.93,0,*5B
1486832431.8,29295,11.25,73758.0,-8.81,-20.59,-18.93,0,*59
1486832433.08,29296,11.25,73760.5,-8.81,-20.53,-18.93,0,*50
1486832434.34,29297,11.25,73760.8,-8.83,-20.53,-18.93,0,*53
1486832435.62,29298,11.25,73760.5,-8.81,-20.53,-18.89,0,*55
1486832436.88,29299,11.31,73762.0,-8.81,-20.43,-18.89,0,*55
1486832438.14,29300,11.25,73760.5,-8.81,-20.39,-18.89,0,*59
1486832439.37,29301,11.25,73758.0,-8.83,-20.43,-18.89,0,*57
1486832440.58,29302,11.25,73762.3,-8.83,-20.39,-18.83,0,*53
1486832441.83,29303,11.31,73762.8,-8.81,-20.39,-18.89,0,*5A
1486832443.09,29304,11.25,73758.3,-8.81,-20.39,-18.89,0,*5D
1486832444.31,29305,11.25,73760.3,-8.81,-20.29,-18.83,0,*57
1486832445.53,29306,11.25,73760.8,-8.81,-20.29,-18.83,0,*54
1486832446.74,29307,11.25,73762.0,-8.81,-20.29,-18.83,0,*55
1486832447.96,29308,11.25,73762.5,-8.81,-20.29,-18.83,0,*5A
1486832449.19,29309,11.25,73760.3,-8.81,-20.25,-18.83,0,*57
1486832450.42,29310,11.25,73762.3,-8.81,-20.25,-18.73,0,*50
1486832451.65,29311,11.25,73762.0,-8.81,-20.25,-18.69,0,*5A
1486832452.88,29312,11.25,73760.8,-8.83,-20.15,-18.83,0,*5C
1486832454.13,29313,11.25,73762.0,-8.81,-20.15,-18.83,0,*5F
1486832455.38,29314,11.25,73758.5,-8.81,-20.15,-18.73,0,*57
1486832456.64,29315,11.25,73762.3,-8.81,-20.15,-18.73,0,*56
1486832457.87,29316,11.25,73762.8,-8.77,-20.05,-18.69,0,*56
1486832459.08,29317,11.25,73760.8,-8.83,-20.09,-18.69,0,*50
1486832460.31,29318,11.25,73762.3,-8.81,-20.09,-18.73,0,*56
1486832461.54,29319,11.25,73758.8,-8.81,-20.09,-18.73,0,*57
1486832462.76,29320,11.25,73762.8,-8.81,-20.09,-18.69,0,*56
1486832464.0,29321,11.25,73762.3,-8.81,-19.99,-18.73,0,*5F
1486832465.24,29322,11.25,73762.5,-8.81,-19.99,-18.73,0,*5C
1486832466.48,29323,11.25,73762.5,-8.77,-19.95,-18.79,0,*52
1486832467.72,29324,11.25,73764.8,-8.81,-19.99,-18.73,0,*5A
1486832468.96,29325,11.25,73760.5,-8.81,-19.99,-18.73,0,*5B
1486832470.19,29326,11.25,73762.5,-8.81,-19.99,-18.69,0,*53
1486832471.43,29327,11.25,73762.5,-8.81,-19.95,-18.73,0,*55
1486832472.67,29328,11.25,73764.8,-8.81,-19.91,-18.73,0,*5E
1486832473.92,29329,11.25,73762.3,-8.81,-19.81,-18.69,0,*55
1486832475.17,29330,11.25,73760.5,-8.81,-19.81,-18.69,0,*5D
1486832476.41,29331,11.25,73762.8,-8.77,-19.91,-18.69,0,*54
1486832477.65,29332,11.25,73762.0,-8.77,-19.75,-18.65,0,*51
1486832478.89,29333,11.25,73760.5,-8.77,-19.75,-18.65,0,*50
1486832480.13,29334,11.25,73760.8,-8.77,-19.75,-18.65,0,*57
1486832481.36,29335,11.25,73762.3,-8.75,-19.71,-18.59,0,*5F
1486832482.6,29336,11.25,73758.0,-8.77,-19.75,-18.69,0,*59
1486832483.86,29337,11.25,73762.5,-8.77,-19.85,-18.69,0,*57
1486832485.1,29338,11.25,73760.0,-8.77,-19.71,-18.65,0,*5F
1486832486.34,29339,11.25,73760.5,-8.81,-19.75,-18.73,0,*54
1486832487.59,29340,11.25,73762.3,-8.81,-19.75,-18.59,0,*52
1486832488.83,29341,11.25,73760.3,-8.77,-19.71,-18.65,0,*51
1486832490.1,29342,11.25,73760.5,-8.77,-19.61,-18.69,0,*5F
1486832491.37,29343,11.25,73762.5,-8.77,-19.61,-18.65,0,*52
1486832492.64,29344,11.25,73762.8,-8.77,-19.61,-18.65,0,*55
1486832493.88,29345,11.25,73760.3,-8.77,-19.71,-18.69,0,*59
1486832495.16,29346,11.25,73762.8,-8.77,-19.61,-18.69,0,*5B
1486832496.43,29347,11.25,73762.8,-8.77,-19.61,-18.65,0,*56
1486832497.7,29348,11.25,73760.3,-8.77,-19.57,-18.65,0,*5C
1486832498.99,29349,11.25,73762.3,-8.77,-19.57,-18.55,0,*5E
1486832500.23,29350,11.25,73760.5,-8.77,-19.47,-18.65,0,*54
1486832501.5,29351,11.25,73764.8,-8.77,-19.57,-18.69,0,*58
1486832502.77,29352,11.25,73762.0,-8.77,-19.57,-18.65,0,*57
1486832504.0,29353,11.25,73760.5,-8.75,-19.51,-18.59,0,*5D
1486832505.25,29354,11.25,73764.0,-8.77,-19.47,-18.69,0,*5C
1486832506.49,29355,11.25,73766.5,-8.77,-19.47,-18.65,0,*51
1486832507.73,29356,11.25,73762.0,-8.77,-19.47,-18.69,0,*5E
1486832508.97,29357,11.25,73760.8,-8.77,-19.47,-18.69,0,*5F
1486832510.21,29358,11.25,73762.8,-8.77,-19.47,-18.69,0,*50
1486832511.47,29359,11.25,73762.8,-8.77,-19.57,-18.79,0,*51
1486832512.72,29360,11.25,73760.0,-8.77,-19.47,-18.69,0,*5B
1486832513.96,29361,11.25,73762.5,-8.77,-19.47,-18.69,0,*5A
1486832515.22,29362,11.25,73760.8,-8.77,-19.41,-18.69,0,*5F
1486832516.49,29363,11.25,73760.5,-8.77,-19.41,-18.69,0,*5E
1486832517.72,29364,11.25,73766.3,-8.77,-19.47,-18.79,0,*5E
1486832518.96,29365,11.25,73762.5,-8.77,-19.47,-18.69,0,*5E
1486832520.23,29366,11.25,73764.0,-8.77,-19.41,-18.69,0,*5B
1486832521.49,29367,11.25,73760.0,-8.77,-19.41,-18.83,0,*5E
1486832522.75,29368,11.25,73760.5,-8.77,-19.41,-18.79,0,*54
1486832524.0,29369,11.25,73756.8,-8.77,-19.41,-18.79,0,*55
1486832525.27,29370,11.25,73764.0,-8.77,-19.31,-18.79,0,*5A
1486832526.52,29371,11.25,73758.3,-8.75,-19.27,-18.73,0,*54
1486832527.78,29372,11.25,73760.0,-8.77,-19.41,-18.79,0,*5F
1486832529.04,29373,11.25,73760.8,-8.77,-19.31,-18.79,0,*59
1486832530.3,29374,11.25,73760.0,-8.77,-19.41,-18.79,0,*59
1486832531.56,29375,11.25,73760.5,-8.77,-19.31,-18.83,0,*5A
1486832532.77,29376,11.25,73758.5,-8.75,-19.37,-18.79,0,*58
1486832534.01,29377,11.25,73760.8,-8.75,-19.27,-18.79,0,*58
1486832535.28,29378,11.25,73760.5,-8.77,-19.31,-18.83,0,*57
1486832536.52,29379,11.25,73756.8,-8.75,-19.31,-18.73,0,*5B
1486832537.73,29380,11.25,73764.0,-8.75,-19.37,-18.83,0,*54
1486832538.94,29381,11.25,73760.8,-8.75,-19.37,-18.79,0,*50
1486832540.15,29382,11.25,73760.0,-8.75,-19.37,-18.83,0,*56
1486832541.39,29383,11.25,73762.8,-8.75,-19.27,-18.79,0,*53
1486832542.68,29384,11.25,73762.8,-8.77,-19.31,-18.89,0,*5E
1486832543.92,29385,11.25,73762.5,-8.75,-19.27,-18.83,0,*50
1486832545.16,29386,11.25,73762.5,-8.75,-19.27,-18.83,0,*53
1486832546.4,29387,11.25,73758.8,-8.75,-19.27,-18.83,0,*52
1486832547.63,29388,11.25,73756.0,-8.75,-19.23,-18.83,0,*59
1486832548.92,29389,11.25,73764.0,-8.77,-19.31,-18.89,0,*53
1486832550.15,29390,11.25,73762.0,-8.75,-19.23,-18.83,0,*50
1486832551.42,29391,11.25,73762.8,-8.75,-19.27,-18.93,0,*54
1486832552.66,29392,11.25,73760.5,-8.75,-19.27,-18.83,0,*56
1486832553.93,29393,11.25,73760.5,-8.77,-19.27,-18.99,0,*5E
1486832555.2,29394,11.25,73756.8,-8.75,-19.23,-18.93,0,*55
1486832556.46,29395,11.25,73758.8,-8.75,-19.23,-18.93,0,*54
1486832557.72,29396,11.25,73758.5,-8.77,-19.31,-18.99,0,*5C
1486832558.99,29397,11.25,73760.0,-8.75,-19.23,-18.93,0,*56
1486832560.22,29398,11.25,73758.5,-8.75,-19.23,-18.83,0,*58
1486832561.48,29399,11.25,73762.3,-8.75,-19.23,-18.93,0,*58
1486832562.72,29400,11.25,73762.5,-8.75,-19.23,-18.83,0,*5E
1486832563.95,29401,11.25,73760.0,-8.75,-19.23,-18.83,0,*5F
1486832565.21,29402,11.25,73758.5,-8.75,-19.23,-18.93,0,*5D
1486832566.45,29403,11.25,73758.8,-8.75,-19.27,-18.99,0,*52
1486832567.69,29404,11.25,73762.0,-8.75,-19.27,-19.07,0,*53
1486832568.92,29405,11.25,73760.8,-8.75,-19.23,-18.99,0,*50
1486832570.16,29406,11.25,73758.0,-8.73,-19.13,-18.99,0,*56
1486832571.4,29407,11.25,73758.8,-8.73,-19.13,-18.99,0,*57
1486832572.63,29408,11.25,73760.0,-8.75,-19.23,-18.99,0,*5D
1486832573.87,29409,11.25,73758.3,-8.75,-19.23,-18.99,0,*5C
1486832575.1,29410,11.25,73762.0,-8.75,-19.27,-19.07,0,*56
1486832576.37,29411,11.25,73764.5,-8.73,-19.27,-18.99,0,*57
1486832577.63,29412,11.25,73762.8,-8.71,-19.23,-18.89,0,*53
1486832578.92,29413,11.25,73762.5,-8.73,-19.23,-18.93,0,*5B
1486832580.15,29414,11.25,73760.8,-8.75,-19.23,-18.99,0,*50
1486832581.39,29415,11.25,73762.5,-8.75,-19.27,-19.07,0,*53
1486832582.62,29416,11.25,73762.0,-8.75,-19.23,-19.07,0,*54
1486832583.86,29417,11.25,73764.8,-8.75,-19.27,-18.99,0,*57
1486832585.1,29418,11.25,73762.8,-8.73,-19.13,-18.99,0,*59
1486832586.36,29419,11.25,73760.5,-8.73,-19.27,-19.07,0,*59
1486832587.6,29420,11.25,73762.5,-8.73,-19.13,-18.99,0,*52
1486832588.86,29421,11.25,73762.0,-8.73,-19.23,-18.99,0,*50
1486832590.12,29422,11.25,73760.3,-8.73,-19.23,-19.07,0,*55
1486832591.36,29423,11.25,73762.3,-8.75,-19.27,-19.07,0,*56
1486832592.62,29424,11.25,73766.8,-8.73,-19.27,-19.07,0,*57
1486832593.86,29425,11.25,73762.0,-8.75,-19.27,-19.07,0,*50
1486832595.09,29426,11.25,73762.3,-8.75,-19.27,-19.07,0,*53
1486832596.32,29427,11.25,73760.5,-8.75,-19.23,-19.07,0,*56
1486832597.56,29428,11.25,73762.8,-8.75,-19.27,-18.99,0,*5B
1486832598.8,29429,11.25,73764.5,-8.75,-19.27,-19.07,0,*5C
1486832600.06,29430,11.25,73762.5,-8.73,-19.23,-19.07,0,*56
1486832601.29,29431,11.25,73760.8,-8.75,-19.23,-19.07,0,*51
1486832602.52,29432,11.25,73762.8,-8.75,-19.27,-19.07,0,*56
1486832603.79,29433,11.25,73758.8,-8.73,-19.27,-18.99,0,*57
1486832605.05,29434,11.25,73762.8,-8.73,-19.23,-18.99,0,*54
1486832606.31,29435,11.25,73758.5,-8.73,-19.27,-19.07,0,*57
1486832607.58,29436,11.25,73760.5,-8.73,-19.27,-18.99,0,*52
1486832608.85,29437,11.25,73762.8,-8.73,-19.27,-18.99,0,*53
1486832610.12,29438,11.25,73762.0,-8.73,-19.27,-18.99,0,*5C
1486832611.38,29439,11.25,73764.3,-8.73,-19.27,-18.99,0,*5D
1486832612.65,29440,11.25,73760.5,-8.73,-19.27,-18.99,0,*53
1486832613.89,29441,11.25,73760.8,-8.73,-19.37,-18.99,0,*53
1486832615.15,29442,11.25,73758.8,-8.73,-19.27,-18.99,0,*51
1486832616.36,29443,11.25,73760.5,-8.75,-19.37,-19.07,0,*51
1486832617.59,29444,11.25,73762.0,-8.73,-19.37,-19.07,0,*50
1486832618.86,29445,11.25,73758.8,-8.73,-19.27,-19.07,0,*50
1486832620.12,29446,11.25,73762.3,-8.73,-19.27,-19.07,0,*53
1486832621.35,29447,11.25,73762.5,-8.71,-19.23,-19.07,0,*54
1486832622.56,29448,11.25,73758.8,-8.71,-19.37,-18.99,0,*58
1486832623.79,29449,11.25,73760.8,-8.73,-19.37,-19.07,0,*5D
1486832625.03,29450,11.25,73758.8,-8.73,-19.37,-18.99,0,*53
1486832626.27,29451,11.25,73760.8,-8.73,-19.37,-18.99,0,*52
1486832627.5,29452,11.25,73760.3,-8.71,-19.31,-19.03,0,*57
1486832628.73,29453,11.25,73760.5,-8.73,-19.37,-19.07,0,*56
1486832630.0,29454,11.25,73762.0,-8.73,-19.27,-18.99,0,*56
1486832631.27,29455,11.25,73762.5,-8.73,-19.27,-18.99,0,*57
1486832632.5,29456,11.25,73762.5,-8.73,-19.37,-18.99,0,*55
1486832633.77,29457,11.25,73760.5,-8.73,-19.27,-19.07,0,*53
1486832635.0,29458,11.25,73762.3,-8.73,-19.37,-18.99,0,*5B
1486832636.27,29459,11.25,73758.0,-8.73,-19.27,-18.99,0,*5B
1486832637.52,29460,11.25,73760.8,-8.73,-19.41,-19.07,0,*57
1486832638.79,29461,11.25,73760.3,-8.71,-19.31,-18.93,0,*5F
1486832640.05,29462,11.25,73760.3,-8.71,-19.31,-18.93,0,*5C
1486832641.32,29463,11.25,73760.5,-8.71,-19.31,-18.93,0,*5D
1486832642.56,29464,11.25,73764.0,-8.71,-19.27,-18.79,0,*59
1486832643.82,29465,11.25,73760.0,-8.73,-19.37,-18.93,0,*5F
1486832645.06,29466,11.25,73762.5,-8.71,-19.47,-18.93,0,*59
1486832646.32,29467,11.25,73760.5,-8.73,-19.41,-18.99,0,*56
1486832647.57,29468,11.25,73764.0,-8.73,-19.41,-18.99,0,*59
1486832648.84,29469,11.25,73758.5,-8.73,-19.37,-18.93,0,*53
1486832650.1,29470,11.25,73760.5,-8.73,-19.37,-18.93,0,*5B
1486832651.37,29471,11.25,73760.0,-8.73,-19.37,-18.93,0,*5A
1486832652.64,29472,11.25,73760.3,-8.73,-19.37,-18.93,0,*59
1486832653.89,29473,11.25,73762.0,-8.73,-19.41,-18.83,0,*58
1486832655.16,29474,11.25,73760.3,-8.73,-19.37,-18.93,0,*5F
1486832656.42,29475,11.25,73760.8,-8.71,-19.31,-18.89,0,*51
1486832657.65,29476,11.25,73760.0,-8.73,-19.37,-18.83,0,*5C
1486832658.89,29477,11.25,73760.8,-8.71,-19.27,-18.79,0,*5B
1486832660.16,29478,11.25,73760.3,-8.71,-19.31,-18.89,0,*5C
1486832661.39,29479,11.25,73760.8,-8.73,-19.37,-18.83,0,*53
1486832662.66,29480,11.25,73764.5,-8.73,-19.27,-18.83,0,*54
1486832663.96,29481,11.25,73762.8,-8.73,-19.27,-18.93,0,*54
1486832665.22,29482,11.25,73762.3,-8.73,-19.27,-18.83,0,*56
1486832666.46,29483,11.25,73758.3,-8.71,-19.27,-18.79,0,*50
1486832667.73,29484,11.25,73756.5,-8.73,-19.27,-18.83,0,*50
1486832668.97,29485,11.25,73762.0,-8.73,-19.13,-18.79,0,*53
1486832670.19,29486,11.25,73762.3,-8.71,-19.17,-18.73,0,*5C
1486832671.45,29487,11.25,73760.3,-8.73,-19.23,-18.79,0,*52
1486832672.71,29488,11.25,73762.3,-8.73,-19.23,-18.79,0,*5D
1486832673.91,29489,11.25,73762.0,-8.71,-19.07,-18.79,0,*58
1486832675.14,29490,11.25,73758.0,-8.71,-19.23,-18.79,0,*56
1486832676.4,29491,11.25,73762.0,-8.71,-19.23,-18.89,0,*58
1486832677.64,29492,11.25,73760.0,-8.73,-19.13,-18.83,0,*50
1486832678.88,29493,11.25,73762.3,-8.73,-19.13,-18.83,0,*51
1486832680.15,29494,11.25,73760.3,-8.73,-19.23,-18.73,0,*5A
1486832681.36,29495,11.25,73762.0,-8.71,-19.07,-18.73,0,*5F
1486832682.61,29496,11.25,73760.0,-8.73,-19.13,-18.73,0,*5B
1486832683.83,29497,11.25,73760.5,-8.71,-19.13,-18.73,0,*58
1486832685.04,29498,11.25,73762.3,-8.71,-19.13,-18.79,0,*5D
1486832686.28,29499,11.25,73766.0,-8.73,-19.13,-18.79,0,*5E
1486832687.52,29500,11.25,73762.8,-8.73,-19.13,-18.79,0,*5F
1486832688.76,29501,11.25,73760.5,-8.73,-19.13,-18.79,0,*5E
1486832690.0,29502,11.25,73760.8,-8.73,-19.13,-18.79,0,*5D
1486832691.21,29503,11.25,73762.0,-8.71,-19.03,-18.69,0,*5E
1486832692.42,29504,11.25,73762.3,-8.71,-19.03,-18.69,0,*59
1486832693.66,29505,11.25,73758.5,-8.71,-18.93,-18.73,0,*5B
1486832694.9,29506,11.25,73758.3,-8.73,-19.07,-18.73,0,*56
1486832696.11,29507,11.25,73762.5,-8.71,-19.03,-18.73,0,*51
1486832697.32,29508,11.25,73760.8,-8.71,-19.03,-18.73,0,*5E
1486832698.53,29509,11.25,73758.8,-8.71,-19.03,-18.69,0,*54
1486832699.77,29510,11.25,73762.3,-8.73,-19.13,-18.79,0,*5E
1486832701.01,29511,11.25,73760.8,-8.73,-18.99,-18.73,0,*56
1486832702.25,29512,11.25,73760.3,-8.71,-18.93,-18.69,0,*56
1486832703.46,29513,11.25,73762.3,-8.71,-19.03,-18.69,0,*5F
1486832704.67,29514,11.25,73762.3,-8.71,-19.03,-18.73,0,*53
1486832705.91,29515,11.25,73762.5,-8.73,-18.99,-18.73,0,*52
1486832707.15,29516,11.25,73766.0,-8.71,-18.93,-18.69,0,*52
1486832708.39,29517,11.25,73762.3,-8.71,-18.93,-18.69,0,*53
1486832709.62,29518,11.25,73760.8,-8.73,-18.99,-18.79,0,*55
1486832710.83,29519,11.25,73762.0,-8.71,-19.03,-18.73,0,*5E
1486832712.08,29520,11.25,73762.5,-8.73,-18.99,-18.73,0,*54
1486832713.31,29521,11.25,73762.8,-8.71,-18.93,-18.69,0,*56
1486832714.55,29522,11.25,73760.0,-8.71,-18.93,-18.69,0,*55
1486832715.76,29523,11.25,73762.5,-8.71,-18.99,-18.79,0,*5F
1486832717.02,29524,11.25,73760.5,-8.73,-18.93,-18.79,0,*50
1486832718.28,29525,11.25,73762.5,-8.73,-18.93,-18.65,0,*5C
1486832719.55,29526,11.25,73760.3,-8.73,-18.93,-18.65,0,*5F
1486832720.8,29527,11.25,73762.5,-8.71,-18.89,-18.55,0,*54
1486832722.06,29528,11.25,73760.3,-8.69,-18.79,-18.59,0,*51
1486832723.29,29529,11.25,73762.3,-8.71,-18.89,-18.69,0,*55
1486832724.52,29530,11.25,73762.5,-8.71,-18.89,-18.69,0,*5D
1486832725.75,29531,11.25,73762.5,-8.71,-18.89,-18.69,0,*5C
1486832726.99,29532,11.25,73762.5,-8.71,-18.89,-18.73,0,*54
1486832728.22,29533,11.25,73762.3,-8.71,-18.89,-18.73,0,*55
1486832729.46,29534,11.25,73764.0,-8.73,-18.83,-18.73,0,*5A
1486832730.73,29535,11.25,73762.3,-8.73,-18.93,-18.73,0,*5A
1486832731.96,29536,11.25,73764.5,-8.71,-18.89,-18.69,0,*5B
1486832733.2,29537,11.25,73762.0,-8.73,-18.83,-18.73,0,*59
1486832734.41,29538,11.25,73760.3,-8.71,-18.79,-18.73,0,*51
1486832735.65,29539,11.25,73766.5,-8.71,-18.89,-18.69,0,*54
1486832736.91,29540,11.25,73764.0,-8.73,-18.93,-18.73,0,*58
1486832738.13,29541,11.25,73762.5,-8.71,-18.79,-18.69,0,*54
1486832739.34,29542,11.25,73762.5,-8.71,-18.79,-18.73,0,*5C
1486832740.57,29543,11.25,73764.0,-8.71,-18.89,-18.69,0,*59
1486832741.78,29544,11.25,73762.3,-8.71,-18.79,-18.69,0,*51
1486832743.0,29545,11.25,73762.8,-8.71,-18.83,-18.73,0,*5E
1486832744.21,29546,11.25,73762.3,-8.71,-18.73,-18.69,0,*59
1486832745.42,29547,11.25,73758.3,-8.71,-18.73,-18.73,0,*53
1486832746.66,29548,11.25,73760.3,-8.73,-18.73,-18.73,0,*5E
1486832747.89,29549,11.25,73762.3,-8.73,-18.79,-18.79,0,*5F
1486832749.11,29550,11.25,73760.5,-8.71,-18.79,-18.73,0,*5F
1486832750.34,29551,11.25,73762.0,-8.73,-18.83,-18.79,0,*53
1486832751.55,29552,11.25,73762.3,-8.71,-18.73,-18.73,0,*57
1486832752.79,29553,11.25,73762.5,-8.73,-18.73,-18.65,0,*53
1486832754.02,29554,11.25,73762.5,-8.73,-18.83,-18.79,0,*56
1486832755.23,29555,11.25,73764.0,-8.71,-18.73,-18.73,0,*50
1486832756.45,29556,11.25,73760.8,-8.71,-18.73,-18.73,0,*53
1486832757.65,29557,11.25,73758.5,-8.71,-18.83,-18.79,0,*57
1486832758.86,29558,11.25,73760.0,-8.71,-18.73,-18.73,0,*5D
1486832760.1,29559,11.25,73760.0,-8.73,-18.73,-18.79,0,*54
1486832761.33,29560,11.25,73762.5,-8.73,-18.79,-18.83,0,*51
1486832762.54,29561,11.25,73760.3,-8.71,-18.69,-18.79,0,*56
1486832763.75,29562,11.25,73760.3,-8.71,-18.73,-18.73,0,*54
1486832764.98,29563,11.25,73760.0,-8.73,-18.79,-18.79,0,*57
1486832766.2,29564,11.25,73764.0,-8.71,-18.69,-18.73,0,*59
1486832767.4,29565,11.25,73760.5,-8.71,-18.73,-18.79,0,*59
1486832768.63,29566,11.25,73762.5,-8.71,-18.73,-18.89,0,*55
1486832769.85,29567,11.25,73762.3,-8.71,-18.73,-18.73,0,*51
1486832771.08,29568,11.25,73760.5,-8.73,-18.79,-18.83,0,*59
1486832772.31,29569,11.25,73756.8,-8.71,-18.73,-18.89,0,*5A
1486832773.51,29570,11.25,73760.3,-8.71,-18.73,-18.79,0,*5D
1486832774.74,29571,11.25,73760.5,-8.73,-18.83,-18.79,0,*51
1486832775.95,29572,11.25,73760.0,-8.71,-18.79,-18.79,0,*55
1486832777.18,29573,11.25,73760.8,-8.73,-18.79,-18.83,0,*53
1486832778.41,29574,11.25,73758.8,-8.71,-18.73,-18.89,0,*56
1486832779.64,29575,11.25,73758.3,-8.73,-18.73,-18.83,0,*5F
1486832780.88,29576,11.25,73762.5,-8.73,-18.79,-18.99,0,*5D
1486832782.11,29577,11.25,73764.3,-8.73,-18.79,-18.99,0,*5C
1486832783.34,29578,11.25,73762.8,-8.73,-18.73,-18.83,0,*52
1486832784.57,29579,11.25,73760.5,-8.71,-18.69,-18.89,0,*50
1486832785.81,29580,11.25,73762.8,-8.71,-18.69,-18.93,0,*5D
1486832787.05,29581,11.25,73762.3,-8.71,-18.73,-18.93,0,*57
1486832788.28,29582,11.25,73760.5,-8.71,-18.73,-18.93,0,*54
1486832789.54,29583,11.25,73760.3,-8.71,-18.59,-18.93,0,*5D
1486832790.78,29584,11.25,73760.0,-8.71,-18.69,-18.93,0,*59
1486832792.01,29585,11.25,73762.5,-8.71,-18.73,-18.93,0,*53
1486832793.25,29586,11.25,73766.0,-8.73,-18.79,-18.99,0,*52
1486832794.48,29587,11.25,73762.3,-8.71,-18.69,-18.93,0,*5A
1486832795.69,29588,11.25,73760.5,-8.71,-18.69,-19.03,0,*5D
1486832796.9,29589,11.25,73762.8,-8.71,-18.73,-19.03,0,*57
1486832798.13,29590,11.25,73762.3,-8.71,-18.73,-18.93,0,*57
1486832799.36,29591,11.25,73760.3,-8.73,-18.73,-19.07,0,*58
1486832800.62,29592,11.25,73760.0,-8.71,-18.55,-18.93,0,*51
1486832801.83,29593,11.25,73760.3,-8.71,-18.69,-19.03,0,*57
1486832803.03,29594,11.25,73760.3,-8.71,-18.69,-19.07,0,*54
1486832804.23,29595,11.25,73760.3,-8.71,-18.79,-19.07,0,*54
1486832805.45,29596,11.25,73762.0,-8.71,-18.79,-19.17,0,*56
1486832806.65,29597,11.25,73762.3,-8.71,-18.69,-19.07,0,*57
1486832807.85,29598,11.25,73756.8,-8.71,-18.73,-19.07,0,*53
1486832809.06,29599,11.25,73764.8,-8.71,-18.69,-19.07,0,*59
1486832810.26,29600,11.25,73760.3,-8.71,-18.69,-19.07,0,*5A
1486832811.48,29601,11.25,73766.0,-8.71,-18.69,-19.17,0,*5A
1486832812.69,29602,11.25,73758.8,-8.71,-18.73,-19.17,0,*52
1486832813.9,29603,11.25,73760.0,-8.71,-18.73,-19.17,0,*53
1486832815.11,29604,11.25,73762.0,-8.71,-18.69,-19.07,0,*5E
1486832816.32,29605,11.25,73760.8,-8.71,-18.73,-19.17,0,*55
1486832817.58,29606,11.25,73762.0,-8.73,-18.73,-19.23,0,*53
1486832818.79,29607,11.25,73760.3,-8.71,-18.69,-19.17,0,*5C
1486832820.03,29608,11.25,73760.5,-8.71,-18.59,-19.17,0,*50
1486832821.25,29609,11.25,73760.8,-8.71,-18.59,-19.07,0,*50
1486832822.47,29610,11.25,73762.3,-8.71,-18.69,-19.17,0,*5A
1486832823.68,29611,11.25,73760.3,-8.71,-18.69,-19.17,0,*5B
1486832824.92,29612,11.25,73762.3,-8.71,-18.69,-19.23,0,*5F
1486832826.2,29613,11.25,73764.0,-8.69,-18.55,-19.23,0,*58
1486832827.43,29614,11.25,73762.8,-8.71,-18.59,-19.17,0,*5D
1486832828.67,29615,11.25,73756.0,-8.71,-18.69,-19.31,0,*5B
1486832829.95,29616,11.25,73764.0,-8.69,-18.59,-19.23,0,*51
1486832831.17,29617,11.25,73762.5,-8.67,-18.49,-19.17,0,*58
1486832832.4,29618,11.25,73764.3,-8.71,-18.59,-19.17,0,*51
1486832833.66,29619,11.25,73758.0,-8.71,-18.59,-19.23,0,*57
1486832834.91,29620,11.25,73760.8,-8.71,-18.59,-19.23,0,*5D
1486832836.15,29621,11.25,73760.0,-8.73,-18.65,-19.37,0,*54
1486832837.41,29622,11.25,73760.3,-8.71,-18.59,-19.31,0,*5C
1486832838.62,29623,11.25,73762.5,-8.71,-18.65,-19.37,0,*54
1486832839.83,29624,11.25,73760.8,-8.71,-18.65,-19.37,0,*53
1486832841.07,29625,11.25,73760.3,-8.71,-18.59,-19.37,0,*5D
1486832842.33,29626,11.25,73756.8,-8.69,-18.59,-19.37,0,*57
1486832843.57,29627,11.25,73760.3,-8.71,-18.59,-19.37,0,*5F
1486832844.78,29628,11.25,73760.0,-8.71,-18.69,-19.47,0,*54
1486832845.99,29629,11.25,73766.0,-8.71,-18.73,-19.37,0,*59
1486832847.25,29630,11.25,73762.3,-8.69,-18.55,-19.37,0,*5C
1486832848.51,29631,11.25,73760.8,-8.71,-18.55,-19.31,0,*52
1486832849.77,29632,11.25,73760.0,-8.71,-18.59,-19.31,0,*5D
1486832851.03,29633,11.25,73762.5,-8.69,-18.59,-19.47,0,*54
1486832852.26,29634,11.25,73760.5,-8.71,-18.59,-19.37,0,*5D
1486832853.5,29635,11.25,73760.0,-8.71,-18.55,-19.51,0,*50
1486832854.76,29636,11.25,73756.3,-8.69,-18.59,-19.47,0,*51
1486832855.99,29637,11.25,73758.8,-8.71,-18.59,-19.47,0,*59
1486832857.23,29638,11.25,73760.8,-8.73,-18.65,-19.51,0,*5C
1486832858.46,29639,11.25,73760.3,-8.71,-18.59,-19.51,0,*50
1486832859.72,29640,11.25,73760.0,-8.71,-18.55,-19.61,0,*51
1486832860.95,29641,11.25,73760.5,-8.71,-18.55,-19.47,0,*54
1486832862.19,29642,11.25,73762.8,-8.71,-18.59,-19.51,0,*5C
1486832863.45,29643,11.25,73760.5,-8.71,-18.55,-19.61,0,*52
1486832864.68,29644,11.25,73760.3,-8.71,-18.55,-19.51,0,*56
1486832865.94,29645,11.25,73762.5,-8.69,-18.55,-19.51,0,*5E
1486832867.23,29646,11.25,73760.5,-8.69,-18.55,-19.61,0,*5E
1486832868.49,29647,11.25,73760.8,-8.73,-18.65,-19.65,0,*53
1486832869.76,29648,11.25,73762.5,-8.73,-18.65,-19.65,0,*5C
1486832871.04,29649,11.25,73762.8,-8.73,-18.59,-19.65,0,*52
1486832872.3,29650,11.25,73762.3,-8.71,-18.55,-19.61,0,*50
1486832873.57,29651,11.25,73762.3,-8.73,-18.65,-19.65,0,*54
1486832874.83,29652,11.25,73758.3,-8.71,-18.59,-19.61,0,*5E
1486832876.09,29653,11.25,73762.0,-8.71,-18.55,-19.61,0,*53
1486832877.35,29654,11.25,73762.5,-8.71,-18.59,-19.65,0,*5C
1486832878.59,29655,11.25,73758.5,-8.73,-18.65,-19.71,0,*55
1486832879.82,29656,11.25,73762.0,-8.71,-18.59,-19.75,0,*5F
1486832881.08,29657,11.25,73756.8,-8.71,-18.59,-19.65,0,*5F
1486832882.32,29658,11.25,73760.3,-8.71,-18.59,-19.75,0,*51
1486832883.53,29659,11.25,73758.3,-8.71,-18.73,-19.75,0,*58
1486832884.76,29660,11.25,73758.8,-8.71,-18.59,-19.75,0,*5A
1486832886.02,29661,11.25,73762.8,-8.71,-18.55,-19.65,0,*56
1486832887.26,29662,11.25,73760.3,-8.71,-18.69,-19.65,0,*5A
1486832888.48,29663,11.25,73764.0,-8.71,-18.69,-19.75,0,*5A
1486832889.74,29664,11.25,73762.5,-8.73,-18.73,-19.81,0,*5F
1486832890.95,29665,11.25,73762.3,-8.71,-18.69,-19.75,0,*5C
1486832892.21,29666,11.25,73760.8,-8.71,-18.59,-19.65,0,*5D
1486832893.44,29667,11.25,73762.5,-8.71,-18.59,-19.75,0,*5D
1486832894.71,29668,11.25,73760.0,-8.69,-18.73,-19.85,0,*5C
1486832895.92,29669,11.25,73760.3,-8.71,-18.69,-19.95,0,*5E